• In Belgium
  • List of Countries
  • For 7 days
  • Water Temperature
  • Satellite Maps
  • Weather Map
  • Weather Widgets
  • user-avatar
    Login

    Hourly Weather Krasnokamsk

    Today, 23 July, Monday

    Time Temperature Precipitation Wind Pressure Humidity
    00:00 +13°C° 0 mm 1 mps 757 mmHg 72%
    01:00 +13°C° 0 mm 1 mps 758 mmHg 73%
    02:00 +12°C° 0 mm 1 mps 758 mmHg 75%
    03:00 +12°C° 0 mm 1 mps 758 mmHg 76%
    04:00 +11°C° 0 mm 1 mps 758 mmHg 78%
    05:00 +13°C° 0 mm 1 mps 758 mmHg 73%
    06:00 +15°C° 0 mm 1 mps 758 mmHg 67%
    07:00 +16°C° 0 mm 1 mps 758 mmHg 62%
    08:00 +19°C° 0 mm 1 mps 758 mmHg 56%
    09:00 +21°C° 0 mm 1 mps 758 mmHg 50%
    10:00 +23°C° 0 mm 1 mps 758 mmHg 43%
    11:00 +24°C° 0 mm 1 mps 758 mmHg 40%
    12:00 +25°C° 0 mm 1 mps 758 mmHg 37%
    13:00 +27°C° 0 mm 1 mps 758 mmHg 34%
    14:00 +27°C° 0 mm 1 mps 758 mmHg 34%
    15:00 +27°C° 0 mm 1 mps 757 mmHg 34%
    16:00 +27°C° 0 mm 1 mps 757 mmHg 34%
    17:00 +26°C° 0 mm 1 mps 757 mmHg 41%
    18:00 +25°C° 0 mm 1 mps 757 mmHg 48%
    19:00 +24°C° 0 mm 1 mps 757 mmHg 55%
    20:00 +22°C° 0 mm 1 mps 757 mmHg 59%
    21:00 +20°C° 0 mm 1 mps 757 mmHg 62%
    22:00 +16°C° 0 mm 0 mps 757 mmHg 66%
    23:00 +15°C° 0 mm 0 mps 757 mmHg 67%

    Tomorrow, 24 July, Tuesday

    Time Temperature Precipitation Wind Pressure Humidity
    00:00 +15°C° 0 mm 0 mps 757 mmHg 68%
    01:00 +14°C° 0 mm 0 mps 758 mmHg 70%
    02:00 +15°C° 0 mm 1 mps 758 mmHg 70%
    03:00 +14°C° 0 mm 1 mps 758 mmHg 71%
    04:00 +14°C° 0 mm 1 mps 758 mmHg 72%
    05:00 +16°C° 0 mm 1 mps 758 mmHg 69%
    06:00 +18°C° 0 mm 1 mps 758 mmHg 66%
    07:00 +20°C° 0 mm 1 mps 758 mmHg 63%
    08:00 +22°C° 0 mm 1 mps 758 mmHg 57%
    09:00 +24°C° 0 mm 1 mps 758 mmHg 52%
    10:00 +26°C° 0 mm 1 mps 758 mmHg 46%
    11:00 +27°C° 0 mm 1 mps 758 mmHg 43%
    12:00 +28°C° 0 mm 2 mps 758 mmHg 39%
    13:00 +30°C° 0 mm 2 mps 758 mmHg 36%
    14:00 +30°C° 0 mm 2 mps 758 mmHg 36%
    15:00 +30°C° 0 mm 2 mps 758 mmHg 36%
    16:00 +30°C° 0 mm 2 mps 758 mmHg 36%
    17:00 +29°C° 0 mm 1 mps 758 mmHg 42%
    18:00 +28°C° 0 mm 1 mps 758 mmHg 49%
    19:00 +26°C° 0 mm 1 mps 758 mmHg 56%
    20:00 +24°C° 0 mm 1 mps 758 mmHg 60%
    21:00 +22°C° 0 mm 1 mps 758 mmHg 63%
    22:00 +20°C° 0 mm 1 mps 758 mmHg 67%
    23:00 +20°C° 0 mm 1 mps 758 mmHg 68%

    Day after tomorrow, 25 July, Wednesday

    Time Temperature Precipitation Wind Pressure Humidity
    00:00 +19°C° 0 mm 1 mps 759 mmHg 69%
    01:00 +19°C° 0 mm 1 mps 759 mmHg 70%
    02:00 +18°C° 0 mm 1 mps 759 mmHg 72%
    03:00 +18°C° 0 mm 1 mps 759 mmHg 73%
    04:00 +16°C° 0 mm 1 mps 759 mmHg 74%
    05:00 +19°C° 0 mm 1 mps 760 mmHg 71%
    06:00 +20°C° 0 mm 1 mps 760 mmHg 68%
    07:00 +22°C° 0 mm 1 mps 760 mmHg 65%
    08:00 +24°C° 0 mm 1 mps 760 mmHg 59%
    09:00 +26°C° 0 mm 1 mps 760 mmHg 52%
    10:00 +28°C° 0 mm 1 mps 760 mmHg 46%
    11:00 +29°C° 0 mm 1 mps 760 mmHg 42%
    12:00 +30°C° 0 mm 1 mps 760 mmHg 38%
    13:00 +31°C° 0 mm 1 mps 760 mmHg 34%
    14:00 +32°C° 0 mm 1 mps 760 mmHg 34%
    15:00 +32°C° 0 mm 1 mps 760 mmHg 33%
    16:00 +32°C° 0 mm 1 mps 759 mmHg 33%
    17:00 +30°C° 0 mm 1 mps 760 mmHg 40%
    18:00 +29°C° 0 mm 1 mps 760 mmHg 47%
    19:00 +27°C° 0 mm 1 mps 760 mmHg 54%
    20:00 +25°C° 0 mm 1 mps 760 mmHg 57%
    21:00 +24°C° 0 mm 1 mps 760 mmHg 60%
    22:00 +22°C° 0 mm 1 mps 760 mmHg 63%
    23:00 +21°C° 0 mm 1 mps 760 mmHg 66%

    26 July, Thursday

    Time Temperature Precipitation Wind Pressure Humidity
    00:00 +21°C° 0 mm 1 mps 761 mmHg 68%
    01:00 +20°C° 0 mm 1 mps 761 mmHg 71%
    02:00 +19°C° 0 mm 1 mps 761 mmHg 72%
    03:00 +19°C° 0 mm 1 mps 761 mmHg 73%
    04:00 +19°C° 0 mm 1 mps 761 mmHg 75%
    05:00 +20°C° 0 mm 1 mps 761 mmHg 72%
    06:00 +21°C° 0 mm 1 mps 761 mmHg 69%
    07:00 +22°C° 0 mm 1 mps 762 mmHg 66%
    08:00 +24°C° 0 mm 1 mps 761 mmHg 60%
    09:00 +26°C° 0 mm 1 mps 761 mmHg 53%
    10:00 +28°C° 0 mm 1 mps 761 mmHg 47%
    11:00 +29°C° 0 mm 1 mps 761 mmHg 43%
    12:00 +30°C° 0 mm 1 mps 761 mmHg 40%
    13:00 +31°C° 0 mm 1 mps 761 mmHg 36%
    14:00 +31°C° 0 mm 1 mps 761 mmHg 36%
    15:00 +31°C° 0 mm 1 mps 761 mmHg 36%
    16:00 +31°C° 0 mm 1 mps 761 mmHg 35%
    17:00 +30°C° 0 mm 1 mps 760 mmHg 42%
    18:00 +29°C° 0 mm 1 mps 760 mmHg 48%
    19:00 +27°C° 0 mm 1 mps 760 mmHg 55%
    20:00 +26°C° 0 mm 1 mps 760 mmHg 57%
    21:00 +22°C° 0 mm 0 mps 760 mmHg 60%
    22:00 +20°C° 0 mm 0 mps 760 mmHg 62%
    23:00 +19°C° 0 mm 0 mps 760 mmHg 63%

    27 July, Friday

    Time Temperature Precipitation Wind Pressure Humidity
    00:00 +19°C° 0 mm 0 mps 760 mmHg 64%
    01:00 +19°C° 0 mm 0 mps 760 mmHg 65%
    02:00 +18°C° 0 mm 0 mps 760 mmHg 66%
    03:00 +18°C° 0 mm 0 mps 760 mmHg 68%
    04:00 +17°C° 0 mm 0 mps 760 mmHg 70%
    05:00 +19°C° 0 mm 0 mps 761 mmHg 68%
    06:00 +20°C° 0 mm 0 mps 761 mmHg 66%
    07:00 +22°C° 0 mm 0 mps 761 mmHg 64%
    08:00 +25°C° 0 mm 1 mps 760 mmHg 59%
    09:00 +27°C° 0 mm 1 mps 760 mmHg 53%
    10:00 +29°C° 0 mm 1 mps 760 mmHg 48%
    11:00 +30°C° 0 mm 1 mps 760 mmHg 44%
    12:00 +31°C° 0 mm 1 mps 760 mmHg 41%
    13:00 +32°C° 0 mm 2 mps 760 mmHg 37%
    14:00 +32°C° 0 mm 2 mps 759 mmHg 38%
    15:00 +31°C° 0 mm 2 mps 759 mmHg 39%
    16:00 +31°C° 0 mm 2 mps 759 mmHg 40%
    17:00 +30°C° 0 mm 2 mps 759 mmHg 47%
    18:00 +29°C° 0 mm 1 mps 759 mmHg 53%
    19:00 +28°C° 0 mm 1 mps 759 mmHg 60%
    20:00 +26°C° 0 mm 1 mps 758 mmHg 63%
    21:00 +25°C° 0 mm 1 mps 758 mmHg 66%
    22:00 +24°C° 0 mm 1 mps 758 mmHg 69%
    23:00 +23°C° 0 mm 1 mps 758 mmHg 72%

    28 July, Saturday

    Time Temperature Precipitation Wind Pressure Humidity
    00:00 +22°C° 0 mm 1 mps 758 mmHg 74%
    01:00 +21°C° 0 mm 2 mps 758 mmHg 77%
    02:00 +20°C° 0 mm 2 mps 758 mmHg 79%
    03:00 +20°C° 0 mm 2 mps 757 mmHg 81%
    04:00 +19°C° 0 mm 2 mps 757 mmHg 83%
    05:00 +20°C° 0 mm 2 mps 757 mmHg 80%
    06:00 +23°C° 0 mm 2 mps 757 mmHg 76%
    07:00 +24°C° 0 mm 2 mps 757 mmHg 72%
    08:00 +25°C° 0.1 mm 2 mps 757 mmHg 67%
    09:00 +27°C° 0.1 mm 2 mps 756 mmHg 61%
    10:00 +29°C° 0.1 mm 3 mps 756 mmHg 56%
    11:00 +29°C° 0.4 mm 3 mps 756 mmHg 56%
    12:00 +30°C° 0.4 mm 3 mps 756 mmHg 55%
    13:00 +30°C° 0.4 mm 3 mps 755 mmHg 55%
    14:00 +30°C° 0.1 mm 3 mps 755 mmHg 55%
    15:00 +29°C° 0.1 mm 3 mps 755 mmHg 55%
    16:00 +29°C° 0.1 mm 3 mps 755 mmHg 55%
    17:00 +28°C° 0.1 mm 3 mps 755 mmHg 60%
    18:00 +27°C° 0.1 mm 3 mps 755 mmHg 65%
    19:00 +26°C° 0.1 mm 3 mps 755 mmHg 70%
    20:00 +25°C° 0.1 mm 3 mps 755 mmHg 75%
    21:00 +22°C° 0.1 mm 3 mps 755 mmHg 80%
    22:00 +21°C° 0.1 mm 3 mps 755 mmHg 84%
    23:00 +20°C° 0.2 mm 3 mps 755 mmHg 86%
    Show more